Stevensville, MD

3:52 PM EST on February 20, 2017 (GMT -0500)
Stevensville

Weather History for KW29 - May, 2012

Change the Weather History Date:

Thursday, May 17, 2012

  Actual Average (KESN) Record (KESN)
Temperature  
Mean Temperature 63 °F -  
Max Temperature 71 °F 78 °F 90 °F (1974)
Min Temperature 55 °F 55 °F 35 °F (1956)
Degree Days  
Heating Degree Days 2    
Growing Degree Days 13 (Base 50)    
Moisture  
Dew Point 51 °F    
Average Humidity 64    
Maximum Humidity 94    
Minimum Humidity 31    
Precipitation  
Precipitation 0.00 in - - ()
Sea Level Pressure  
Sea Level Pressure 30.05 in    
Wind  
Wind Speed 7 mph (North)    
Max Wind Speed 17 mph    
Max Gust Speed 25 mph    
Visibility 10 miles    
Events      
Averages and records for this station are not official NWS values.
T = Trace of Precipitation, MM = Missing Value Source: NWS Daily Summary

Daily Weather History Graph

Daily Weather History Graph

Search for Another Location

Airport or City:

Trip Planner

Search our weather history database for the weather conditions in past years. The results will help you decide how hot, cold, wet, or windy it might be!

Date:

Astronomy

May. 17, 2012 Rise Set
Actual Time 5:50 AM EDT 8:13 PM EDT
Civil Twilight 5:20 AM EDT 8:43 PM EDT
Nautical Twilight 4:42 AM EDT 9:21 PM EDT
Astronomical Twilight 4:01 AM EDT 10:02 PM EDT
Moon 3:46 AM EDT (5/17) 5:24 PM EDT (5/17)
Length of Visible Light 15h 23m
Length of Day
14h 22m
Waning Crescent, 10% of the Moon is Illuminated
May 17
Waning Crescent
May 20
New
May 28
First Quarter
Jun 4
Full
Jun 11
Last Quarter

Hourly Weather History & Observations

Time (EDT) Temp. Dew Point Humidity Pressure Visibility Wind Dir Wind Speed Gust Speed Precip Events Conditions
12:12 AM 68.0 °F 60.8 °F 78% 29.92 in 10.0 mi SW 5.8 mph - N/A   Clear
12:33 AM 69.8 °F 60.8 °F 73% 29.92 in 10.0 mi SW 4.6 mph - N/A   Clear
12:55 AM 68.0 °F 62.6 °F 83% 29.93 in 10.0 mi SW 4.6 mph - N/A   Clear
1:16 AM 68.0 °F 62.6 °F 83% 29.92 in 10.0 mi SW 4.6 mph - N/A   Clear
1:37 AM 68.0 °F 64.4 °F 88% 29.94 in 10.0 mi NNW 4.6 mph - N/A   Clear
1:59 AM 66.2 °F 64.4 °F 94% 29.94 in 10.0 mi NNW 3.5 mph - N/A   Clear
2:20 AM 66.2 °F 64.4 °F 94% 29.94 in 10.0 mi Calm Calm - N/A   Clear
2:41 AM 64.4 °F 62.6 °F 94% 29.93 in 10.0 mi Calm Calm - N/A   Clear
3:03 AM 66.2 °F 64.4 °F 94% 29.94 in 7.0 mi North 3.5 mph - N/A   Scattered Clouds
3:24 AM 66.2 °F 64.4 °F 94% 29.94 in 7.0 mi North 3.5 mph - N/A   Scattered Clouds
3:45 AM 64.4 °F 62.6 °F 94% 29.95 in 10.0 mi North 4.6 mph - N/A   Scattered Clouds
4:07 AM 66.2 °F 60.8 °F 83% 29.96 in 10.0 mi North 6.9 mph - N/A   Clear
4:28 AM 66.2 °F 59.0 °F 78% 29.96 in 10.0 mi North 6.9 mph - N/A   Clear
4:49 AM 66.2 °F 59.0 °F 78% 29.97 in 10.0 mi North 9.2 mph - N/A   Clear
5:11 AM 64.4 °F 59.0 °F 83% 29.97 in 10.0 mi North 12.7 mph 18.4 mph N/A   Clear
5:32 AM 64.4 °F 59.0 °F 83% 29.98 in 10.0 mi North 13.8 mph 21.9 mph N/A   Clear
5:53 AM 64.4 °F 59.0 °F 83% 29.99 in 10.0 mi North 11.5 mph 21.9 mph N/A   Clear
6:15 AM 64.4 °F 59.0 °F 83% 30.00 in 10.0 mi North 15.0 mph 20.7 mph N/A   Clear
6:36 AM 62.6 °F 57.2 °F 82% 30.01 in 10.0 mi North 15.0 mph 19.6 mph N/A   Clear
6:57 AM 62.6 °F 55.4 °F 77% 30.03 in 10.0 mi North 17.3 mph 25.3 mph N/A   Clear
7:19 AM 62.6 °F 55.4 °F 77% 30.04 in 10.0 mi North 16.1 mph 23.0 mph N/A   Scattered Clouds
8:01 AM 62.6 °F 53.6 °F 72% 30.07 in 10.0 mi North 15.0 mph 20.7 mph N/A   Scattered Clouds
8:22 AM 62.6 °F 53.6 °F 72% 30.07 in 10.0 mi North 11.5 mph 19.6 mph N/A   Scattered Clouds
8:44 AM 62.6 °F 53.6 °F 72% 30.08 in 10.0 mi North 13.8 mph 20.7 mph N/A   Mostly Cloudy
9:05 AM 64.4 °F 53.6 °F 68% 30.10 in 10.0 mi North 9.2 mph - N/A   Mostly Cloudy
9:26 AM 62.6 °F 48.2 °F 59% 30.10 in 10.0 mi North 11.5 mph 17.3 mph N/A   Scattered Clouds
9:47 AM 64.4 °F 48.2 °F 56% 30.11 in 10.0 mi North 10.4 mph 16.1 mph N/A   Clear
10:30 AM 64.4 °F 46.4 °F 52% 30.11 in 10.0 mi North 15.0 mph 19.6 mph N/A   Clear
10:51 AM 64.4 °F 46.4 °F 52% 30.11 in 10.0 mi North 12.7 mph 17.3 mph N/A   Clear
11:13 AM 64.4 °F 46.4 °F 52% 30.12 in 10.0 mi North 11.5 mph 18.4 mph N/A   Clear
11:55 AM 64.4 °F 46.4 °F 52% 30.13 in 10.0 mi North 11.5 mph - N/A   Clear
12:16 PM 66.2 °F 46.4 °F 49% 30.12 in 10.0 mi North 12.7 mph - N/A   Clear
12:38 PM 66.2 °F 46.4 °F 49% 30.12 in 10.0 mi North 11.5 mph 16.1 mph N/A   Clear
12:59 PM 68.0 °F 46.4 °F 46% 30.11 in 10.0 mi North 11.5 mph 17.3 mph N/A   Clear
1:20 PM 68.0 °F 46.4 °F 46% 30.11 in 10.0 mi North 10.4 mph 17.3 mph N/A   Clear
2:03 PM 69.8 °F 44.6 °F 40% 30.10 in 10.0 mi North 10.4 mph - N/A   Clear
2:24 PM 69.8 °F 42.8 °F 38% 30.10 in 10.0 mi North 10.4 mph - N/A   Clear
2:45 PM 69.8 °F 42.8 °F 38% 30.10 in 10.0 mi North 11.5 mph - N/A   Clear
3:07 PM 71.6 °F 42.8 °F 35% 30.09 in 10.0 mi North 8.1 mph - N/A   Clear
3:28 PM 69.8 °F 42.8 °F 38% 30.08 in 10.0 mi North 9.2 mph - N/A   Clear
3:49 PM 71.6 °F 39.2 °F 31% 30.08 in 10.0 mi North 11.5 mph - N/A   Clear
4:10 PM 69.8 °F 41.0 °F 35% 30.07 in 10.0 mi North 8.1 mph - N/A   Clear
4:32 PM 69.8 °F 42.8 °F 38% 30.08 in 10.0 mi North 8.1 mph - N/A   Clear
4:53 PM 71.6 °F 42.8 °F 35% 30.08 in 10.0 mi North 8.1 mph - N/A   Clear
5:14 PM 69.8 °F 42.8 °F 38% 30.08 in 10.0 mi North 6.9 mph - N/A   Clear
5:57 PM 69.8 °F 44.6 °F 40% 30.09 in 10.0 mi North 4.6 mph - N/A   Clear
6:18 PM 69.8 °F 42.8 °F 38% 30.08 in 10.0 mi NNE 4.6 mph - N/A   Clear
6:39 PM 69.8 °F 42.8 °F 38% 30.08 in 10.0 mi NE 3.5 mph - N/A   Clear
7:01 PM 69.8 °F 42.8 °F 38% 30.08 in 10.0 mi North 4.6 mph - N/A   Clear
7:22 PM 68.0 °F 41.0 °F 37% 30.09 in 10.0 mi NNE 4.6 mph - N/A   Clear
7:43 PM 66.2 °F 42.8 °F 43% 30.10 in 10.0 mi NNE 3.5 mph - N/A   Clear
8:04 PM 62.6 °F 44.6 °F 52% 30.10 in 10.0 mi NNE 3.5 mph - N/A   Clear
8:26 PM 60.8 °F 46.4 °F 59% 30.10 in 10.0 mi North 4.6 mph - N/A   Clear
8:47 PM 59.0 °F 50.0 °F 72% 30.10 in 10.0 mi Calm Calm - N/A   Clear
9:08 PM 55.4 °F 50.0 °F 82% 30.11 in 10.0 mi NNE 3.5 mph - N/A   Clear
9:51 PM 57.2 °F 48.2 °F 72% 30.12 in 10.0 mi Calm Calm - N/A   Clear
10:12 PM 55.4 °F 50.0 °F 82% 30.12 in 10.0 mi Calm Calm - N/A   Clear
10:33 PM 55.4 °F 50.0 °F 82% 30.13 in 10.0 mi Calm Calm - N/A   Clear
10:55 PM 55.4 °F 50.0 °F 82% 30.13 in 10.0 mi Calm Calm - N/A   Clear
11:16 PM 55.4 °F 50.0 °F 82% 30.12 in 10.0 mi East 3.5 mph - N/A   Clear
11:37 PM 55.4 °F 50.0 °F 82% 30.12 in 10.0 mi ESE 4.6 mph - N/A   Clear